Location: ČR
(50.0000°N, 15.0000°E)
Time: 07:07:24
(UTC+02:00)

A-11 Canister half - Pass Details

Date: 19 March 2026
Orbit: 1514 x 1685 km, 47.2° (Epoch: 18 April)

Event Time Altitude Azimuth Distance (km) Brightness Sun altitude
Rises 14:27:54 0° 247° (WSW) 4,836 12.5 31.4°
Reaches altitude 10° 14:30:59 10° 246° (WSW) 3,872 12.3 31.1°
Maximum altitude 14:40:51 70° 165° (SSE) 1,755 10.0 29.9°
Drops below altitude 10° 14:50:57 10° 85° (E) 3,952 10.8 28.8°
Sets 14:54:08 0° 83° (E) 4,941 11.2 28.4°
